Temp
22 22 22 22 22 22 22 22 22 22 22 21 22 22 22 21 21 21 21 21 21 21 21 21 21 21 21 21 20 20 20 20 20 20 20 20 19 19 18 18 18 18
22 22 22 22 22 22 22 22 22 22 22 22 22 22 22 21 21 21 21 21 21 21 21 21 21 21 21 20 20 20 20 20 20 20 20 20 19 19 19 19 18 18
22 22 22 22 22 22 22 22 22 22 22 22 22 22 21 21 21 21 21 21 21 21 21 21 20 20 20 20 20 20 20 20 20 20 20 19 19 19 19 19 19 18
22 22 22 22 22 22 22 22 22 22 22 22 21 22 21 21 21 21 21 21 21 21 21 20 20 20 20 20 19 19 19 20 20 20 19 19 19 19 19 19 18 18
22 22 23 23 23 22 22 22 22 22 22 22 22 22 22 22 21 21 21 21 21 21 21 20 20 20 20 19 19 19 19 19 19 19 19 19 18 18 18 18 18 18
22 23 23 23 23 22 22 22 22 22 22 22 22 22 22 22 22 21 21 21 21 21 21 20 20 20 20 19 19 19 19 19 19 19 19 19 18 18 18 18 18 17
22 23 23 23 23 22 22 22 22 22 22 22 22 22 22 22 22 21 21 22 22 21 21 20 20 19 19 19 19 19 19 19 19 19 19 19 18 18 17 17 17 17
22 23 23 23 23 22 22 22 22 22 22 22 22 22 22 22 22 22 22 21 21 21 20 20 19 19 19 19 19 19 18 18 18 18 18 18 18 18 17 17 16 16
22 23 23 23 23 22 22 22 22 22 22 22 22 22 22 22 22 22 21 21 21 20 20 19 19 19 19 19 19 19 18 18 18 18 18 18 18 17 17 16 16 15
22 23 23 23 22 22 22 22 22 22 22 22 22 22 21 21 21 21 21 21 21 20 20 19 19 19 18 18 18 18 18 18 18 18 17 17 17 17 16 16 15 15
22 22 22 22 22 22 22 22 22 23 22 22 22 22 21 21 21 21 21 21 21 20 20 20 19 19 18 18 18 18 17 17 17 17 17 17 17 16 16 15 14 14
23 23 22 22 22 22 22 22 22 22 22 22 22 22 21 21 21 21 21 21 21 20 20 19 19 19 18 18 18 17 17 17 17 17 17 17 16 16 15 15 14 14
23 23 22 22 22 22 22 22 22 22 22 22 22 22 21 21 21 21 21 21 20 20 19 19 18 18 18 18 18 17 17 17 17 17 16 16 16 15 15 14 14 13
23 23 23 23 22 22 22 23 23 22 22 22 22 22 21 21 21 21 20 20 19 19 18 18 18 18 18 17 17 17 17 17 17 17 16 16 16 15 14 14 14 13
23 23 23 23 22 22 22 23 23 22 22 22 22 21 21 21 20 20 19 18 18 18 17 17 17 17 17 17 17 17 17 16 16 16 16 16 16 15 14 14 13 13
23 23 23 23 23 23 23 23 23 22 22 22 22 21 21 20 20 19 18 17 17 17 17 17 17 16 16 16 16 16 16 16 16 16 16 16 16 15 15 14 13 13
23 23 23 23 23 23 23 23 23 22 22 22 21 21 20 20 19 18 18 17 16 16 16 17 16 16 16 16 16 16 16 16 16 16 16 16 16 16 15 15 14 13
24 24 24 23 23 23 23 23 23 22 22 22 21 20 20 19 19 18 17 16 16 16 16 16 16 16 16 16 16 16 16 16 16 16 16 16 16 15 15 15 14 13
24 24 24 24 24 23 23 23 23 22 22 21 20 19 19 19 18 17 16 15 15 15 15 15 16 16 15 15 15 16 16 16 15 15 15 15 15 14 14 14 14 13
24 24 24 24 24 23 23 23 23 22 21 20 19 19 19 18 17 16 16 15 15 15 15 15 15 15 15 15 15 15 15 15 15 15 14 14 14 14 14 14 13 13
25 25 25 24 24 24 24 23 22 22 20 19 19 19 18 17 16 16 15 15 14 15 15 15 14 14 15 15 15 15 15 15 15 15 14 14 14 13 13 13 13 13
25 25 25 25 25 24 24 23 22 20 19 19 18 18 17 17 16 16 15 14 14 14 14 14 14 14 14 14 14 14 14 14 15 15 14 14 13 13 13 13 13 13
26 26 25 25 25 25 24 22 21 19 19 19 18 18 17 17 16 15 15 14 14 14 14 14 13 13 14 14 14 14 14 14 15 15 14 14 14 13 13 13 13 13
26 26 26 26 25 25 24 22 20 19 19 18 18 17 17 16 15 15 14 14 14 14 14 14 13 13 13 13 14 14 14 14 15 15 15 14 14 13 13 13 12 12
26 26 26 26 25 24 23 21 19 19 18 18 18 17 16 16 15 14 14 13 13 13 13 13 13 13 13 13 13 14 14 14 14 15 15 15 14 13 12 12 12 12
26 26 26 25 24 23 21 20 19 19 18 18 17 16 15 15 14 14 13 13 13 13 13 12 12 12 13 13 13 14 14 14 14 14 14 15 15 14 12 12 12 12
Height
793 793 794 795 795 796 797 798 798 799 800 800 801 802 802 803 803 803 802 802 801 801 801 800 800 799 798 797 797 796 796 795 795 795 795 794 794 794 794 794 794 794
792 793 794 795 796 797 797 798 799 799 800 801 801 802 802 803 803 802 802 801 801 801 800 800 800 799 799 798 797 797 797 796 796 796 796 795 795 795 795 795 794 794
792 793 794 795 795 797 797 798 799 799 800 801 801 802 802 802 802 802 802 801 801 801 801 801 801 800 800 799 798 798 797 797 797 797 797 796 796 796 796 796 795 795
791 792 793 794 795 796 797 798 799 799 800 800 801 802 802 802 803 802 802 802 802 802 801 801 801 801 801 800 799 799 799 798 798 798 798 797 798 797 797 797 796 796
791 792 792 794 794 796 797 797 798 799 799 800 800 801 802 802 803 803 802 802 802 802 802 802 802 802 801 801 800 800 800 800 799 799 799 799 799 799 799 798 798 798
790 791 792 793 794 795 796 796 797 798 799 799 800 801 802 802 803 803 803 803 802 803 803 803 803 803 802 802 801 801 801 801 801 801 801 801 801 801 801 800 800 800
789 790 791 792 793 794 795 796 797 797 798 799 799 801 801 802 803 803 803 803 803 803 803 803 803 803 803 803 803 803 802 802 802 802 802 802 802 802 802 802 802 802
787 789 790 791 792 793 794 795 796 796 797 798 799 800 801 801 802 802 803 803 803 803 804 804 804 804 804 804 804 804 804 804 804 803 803 803 803 803 803 804 804 803
786 787 789 790 791 792 793 794 795 795 797 797 798 799 800 801 801 802 802 802 803 803 803 804 804 804 804 804 804 805 804 805 805 804 804 804 804 804 804 805 805 805
784 785 787 788 790 791 792 793 794 794 796 797 798 798 799 800 801 801 802 802 803 803 803 804 804 804 805 805 805 805 805 805 806 806 805 805 805 806 806 806 806 806
782 784 785 787 788 789 790 791 793 794 795 796 797 798 799 800 800 801 801 802 802 803 803 804 804 805 805 805 806 806 806 806 806 807 807 807 807 807 807 807 807 807
780 782 783 785 786 788 789 790 792 793 794 795 796 797 798 799 800 801 801 802 802 803 803 804 805 805 806 806 807 807 807 807 807 807 808 808 808 809 809 809 809 809
778 779 781 782 784 786 787 789 790 792 793 794 795 796 798 799 799 800 801 801 802 803 804 804 805 806 807 807 807 808 808 808 808 808 809 809 809 810 810 811 811 811
775 777 779 781 782 784 786 787 789 790 791 792 794 795 796 798 799 799 800 800 801 802 803 804 805 806 807 808 808 809 809 809 810 810 810 810 810 810 811 812 812 812
773 775 777 779 781 782 784 786 787 788 790 791 792 794 795 797 798 799 799 800 801 802 803 805 806 807 808 808 809 810 811 811 811 811 811 811 811 811 812 813 814 814
771 773 775 777 779 780 782 784 785 787 788 790 791 792 794 795 797 798 799 800 802 803 804 805 806 808 809 809 810 810 811 812 812 812 813 813 812 813 813 814 814 814
769 771 773 775 776 779 780 782 784 785 787 788 789 791 793 795 797 798 799 801 802 803 805 806 807 808 809 810 810 811 811 812 812 813 813 814 814 814 814 815 815 815
767 768 770 772 774 776 778 780 782 783 785 787 788 790 792 794 796 798 799 801 802 803 805 805 806 807 808 809 810 810 811 812 813 813 814 814 815 814 815 815 816 816
764 765 768 770 771 774 776 778 780 781 783 785 787 789 792 794 795 797 798 800 801 802 804 805 806 807 807 808 809 809 810 811 813 814 814 815 816 816 816 816 816 816
761 763 765 767 769 771 773 775 777 779 781 784 786 788 791 792 794 796 797 799 800 801 803 804 805 806 807 807 808 808 809 810 812 813 814 816 817 817 818 818 817 817
758 760 762 764 766 768 770 773 775 777 779 781 785 787 789 791 793 794 796 798 799 800 802 803 804 805 806 807 807 807 808 809 811 812 814 815 817 817 818 818 818 818
755 758 759 761 763 765 767 770 773 775 777 780 784 787 788 790 792 793 795 797 798 800 801 802 804 805 805 806 806 807 807 808 810 811 812 814 815 817 818 818 818 818
752 754 756 758 760 761 764 767 770 773 775 778 782 785 787 789 791 793 794 796 797 799 800 801 803 804 805 806 806 807 807 807 809 810 811 812 814 815 816 817 817 817
749 751 753 755 756 759 761 763 767 771 774 777 780 784 786 789 791 792 795 796 797 799 800 801 802 803 804 805 806 806 807 807 807 809 810 810 812 814 815 815 816 816
746 748 749 751 753 756 759 762 766 769 773 776 779 782 785 788 790 793 795 797 798 799 801 801 802 803 804 804 805 806 806 806 807 808 809 810 811 812 814 814 815 816
742 744 746 747 749 753 757 762 765 769 771 774 778 781 784 788 791 793 794 796 797 799 800 801 803 804 804 803 804 805 806 806 807 807 808 809 810 811 812 812 814 815
Wind_Speed
7 7 6 6 7 8 7 6 6 6 5 4 4 4 4 4 4 4 5 6 7 7 8 8 9 9 9 10 10 10 11 12 12 11 11 11 10 10 9 8 7 8
7 8 8 7 7 7 6 6 5 5 5 4 3 3 3 3 3 3 4 6 7 7 8 9 9 9 10 11 11 11 12 13 13 12 12 13 13 12 12 11 10 10
8 9 9 8 8 7 6 5 5 5 5 4 2 3 2 2 3 4 4 6 6 7 8 8 8 10 10 11 11 12 12 13 13 12 13 14 14 14 13 12 13 13
9 9 9 9 9 8 7 5 5 4 4 3 2 2 1 2 3 4 4 5 5 6 7 7 9 9 10 11 11 12 12 13 13 13 14 15 15 15 15 15 16 16
10 10 10 9 9 9 7 6 6 5 4 3 2 1 0 2 3 3 4 4 4 5 6 7 8 9 10 10 11 12 12 13 14 14 14 15 16 15 16 17 17 17
11 11 11 11 10 9 7 7 6 6 5 5 3 2 1 1 1 1 2 2 4 6 7 8 8 9 9 10 10 11 12 13 13 13 14 14 15 16 17 18 18 18
13 12 12 11 11 10 8 8 8 7 6 6 5 4 2 1 1 2 2 4 5 6 7 8 9 9 9 9 10 10 11 12 12 13 14 14 15 16 17 18 19 18
14 14 13 12 11 11 10 10 9 9 8 7 5 4 3 2 2 3 4 5 7 7 8 9 9 9 9 9 10 10 11 12 12 13 14 14 15 16 17 18 19 19
15 15 15 14 13 12 12 11 10 10 9 7 6 5 4 3 3 5 5 6 7 7 8 9 9 9 9 9 10 10 11 11 12 13 14 14 15 16 17 17 18 18
16 17 16 16 15 14 13 13 12 11 10 8 8 6 5 5 5 6 7 7 7 8 9 9 9 9 9 9 10 10 11 11 12 12 13 14 15 16 16 17 17 19
18 18 18 17 16 15 15 14 13 12 10 9 8 6 6 6 7 7 7 7 8 9 9 9 9 9 9 9 9 10 11 11 11 12 12 13 15 15 16 17 18 18
20 20 20 19 18 17 16 15 14 12 10 9 8 7 7 7 8 7 7 8 9 10 10 9 9 9 9 9 9 9 10 10 11 11 11 12 14 15 16 16 17 18
22 22 21 20 19 18 16 15 15 13 11 10 9 8 9 9 9 8 9 10 11 11 10 10 10 9 9 9 9 9 9 9 9 10 11 12 13 15 16 15 15 16
23 22 21 20 19 18 17 16 15 14 13 11 10 10 10 10 11 11 12 12 13 13 12 11 10 10 10 10 9 9 8 9 8 9 10 11 12 14 14 14 14 14
23 23 21 20 19 19 18 17 15 14 13 12 11 12 12 12 13 13 13 13 13 12 11 11 10 11 11 11 10 9 8 8 8 8 8 10 11 12 13 13 14 14
23 23 22 21 20 19 18 17 16 14 13 12 13 14 14 15 15 14 14 14 12 11 11 11 11 11 10 10 10 9 8 8 7 7 7 8 10 10 11 12 13 14
23 23 22 21 21 20 18 17 16 15 14 13 15 16 17 17 16 15 16 15 14 14 14 14 13 11 10 10 10 9 9 8 7 7 7 7 8 9 10 10 11 12
23 23 22 21 21 20 18 17 16 16 16 15 17 19 18 18 18 17 18 17 16 16 16 15 14 12 11 11 10 9 10 9 8 7 8 8 9 9 9 10 10 11
24 23 22 21 20 19 18 17 17 17 17 17 19 20 19 19 20 20 19 18 18 19 18 16 15 14 12 12 12 11 12 11 9 8 9 9 10 10 10 10 10 11
24 23 22 22 21 20 19 18 18 18 18 19 21 21 21 21 22 22 21 19 20 21 20 18 16 15 14 14 13 12 12 11 9 8 8 8 9 9 9 9 9 9
24 23 23 23 22 21 20 19 18 19 21 22 23 22 22 23 23 23 22 21 21 21 20 18 16 15 15 15 14 14 14 12 9 8 8 8 9 9 8 8 9 10
24 24 24 24 23 23 21 19 19 22 24 24 23 22 23 24 23 24 24 23 22 22 21 19 16 16 16 15 14 14 11 8 7 9 10 9 9 8 6 6 7 8
24 24 24 23 23 23 22 21 23 26 26 25 25 24 24 24 23 24 24 24 23 22 21 19 17 16 15 14 11 8 5 2 4 10 12 11 10 8 6 6 5 4
23 23 23 24 23 21 22 24 27 28 27 26 26 25 24 24 24 24 23 22 22 21 20 19 18 16 13 10 7 5 4 1 1 8 13 12 11 11 9 7 7 4
22 22 23 23 20 18 21 27 29 28 27 26 25 25 24 23 23 23 21 21 21 19 17 18 18 14 11 9 6 4 3 1 4 4 10 10 11 15 14 9 8 7
24 24 23 19 18 19 22 27 28 27 27 27 25 25 24 23 23 22 21 21 20 18 18 18 16 14 12 11 8 4 2 2 4 5 3 2 4 13 17 12 8 8
Wind_Direction
151 152 148 133 131 131 132 134 129 127 125 114 106 100 87 64 40 26 16 6 359 2 10 14 15 15 18 21 22 24 26 26 24 22 22 27 28 22 21 21 16 14
160 157 158 151 142 142 146 141 136 135 124 106 97 92 73 52 24 355 3 8 6 19 29 26 25 27 28 30 31 32 33 31 28 28 34 38 38 36 35 33 33 35
168 164 163 161 157 158 158 145 136 129 122 118 106 88 71 41 6 344 3 20 26 38 38 33 33 35 36 36 36 37 36 33 30 35 44 46 44 41 39 40 43 45
173 172 170 167 164 164 163 154 146 138 132 137 118 90 56 21 11 4 11 30 51 54 42 41 41 40 43 43 41 42 40 36 37 42 48 49 48 44 41 47 53 51
178 176 175 174 169 168 169 166 163 158 156 166 173 183 69 40 18 16 21 30 68 80 62 53 50 48 50 49 47 47 44 40 42 46 49 51 52 49 45 49 55 52
181 181 182 182 176 174 176 176 177 177 180 189 194 200 173 82 34 44 53 62 86 90 80 68 61 57 56 56 52 50 48 45 46 49 49 52 56 55 50 49 52 50
183 185 187 185 179 180 186 188 188 191 200 205 200 191 188 204 175 130 118 112 99 90 86 78 70 64 60 61 61 58 54 51 51 55 52 52 58 60 56 52 51 50
184 187 189 189 186 186 192 196 194 197 205 207 202 191 187 211 183 150 139 123 109 98 93 85 76 71 64 63 66 66 63 59 56 59 57 54 58 60 58 55 53 50
185 187 190 192 193 191 196 201 201 202 204 203 205 201 190 196 177 147 136 124 113 103 97 92 86 81 73 67 68 68 69 67 63 62 61 58 59 60 59 57 54 50
188 189 191 194 195 196 201 205 207 206 203 204 205 195 183 185 170 148 136 125 118 110 102 98 94 90 83 77 73 72 72 70 67 66 64 63 62 62 62 61 57 52
191 191 192 196 197 199 202 204 208 207 202 207 205 186 180 176 158 145 138 129 122 113 105 100 98 95 92 87 81 79 79 75 73 71 69 69 68 66 66 65 62 58
193 194 194 198 199 200 204 205 208 207 201 206 206 190 183 170 154 149 143 132 120 113 109 104 100 98 94 92 89 86 84 81 79 76 72 74 74 72 70 68 66 62
194 195 196 199 200 201 204 204 206 205 201 205 207 194 179 165 154 145 135 128 120 115 112 107 104 103 98 92 89 87 86 85 84 82 80 80 82 80 75 72 69 64
195 197 198 199 200 201 203 204 204 203 202 205 201 186 172 163 154 142 133 129 127 124 121 119 118 115 106 97 92 88 85 84 84 87 88 87 90 90 84 78 72 66
196 196 198 199 199 200 203 205 203 200 201 200 188 174 166 161 152 143 136 130 128 129 129 128 125 116 106 101 99 94 86 83 82 84 89 92 94 96 94 90 82 72
197 196 197 198 198 200 203 203 201 199 197 189 177 167 161 156 149 142 135 126 121 124 124 123 122 116 110 107 103 98 91 86 83 81 87 95 98 100 101 98 90 77
197 196 196 197 197 200 202 199 198 196 190 181 172 164 157 152 147 139 131 123 119 121 122 123 123 122 123 120 109 101 96 90 86 84 83 88 94 99 101 98 90 74
198 196 195 197 197 198 199 198 195 190 183 175 166 158 153 148 143 136 129 125 124 125 124 124 125 127 133 132 120 107 98 90 84 81 75 73 75 78 81 85 88 80
198 195 195 197 196 194 196 197 191 184 179 170 158 153 150 145 139 134 131 130 131 129 126 125 127 133 140 138 127 115 101 92 87 82 76 73 73 72 70 72 77 77
197 197 197 196 194 193 196 197 190 181 173 161 153 151 149 144 140 138 136 137 136 133 131 131 132 138 143 139 132 123 110 102 99 95 90 86 85 83 76 69 68 70
197 200 199 195 194 196 199 198 188 171 159 153 152 154 151 146 145 144 142 141 141 139 136 134 135 140 145 143 135 127 119 111 112 117 114 106 102 97 85 79 75 70
196 200 202 200 199 199 196 190 175 158 151 151 154 155 153 151 150 149 147 146 147 145 139 135 136 141 146 146 142 139 135 130 138 142 133 127 125 119 111 104 86 72
201 202 203 201 200 196 187 175 162 154 152 155 156 155 155 155 153 150 150 149 149 148 143 140 140 142 146 150 152 159 171 196 183 158 147 147 156 156 148 134 110 80
205 204 204 205 203 193 177 164 157 154 156 158 159 158 157 155 152 149 148 150 152 152 150 149 147 146 149 152 155 174 190 253 265 164 160 163 168 171 172 160 147 129
211 212 211 206 194 176 163 158 155 155 158 160 160 159 156 152 149 145 144 150 154 155 154 152 150 150 150 148 150 168 177 40 22 119 160 172 172 175 180 175 163 155
211 215 215 199 177 168 163 159 157 157 158 159 158 155 149 145 145 145 148 154 158 159 158 155 152 155 154 151 157 167 147 99 26 37 101 141 171 179 178 171 164 163